Regional Weather Roundup
Issued by NWS Newport/Morehead, NC

Current Version | Previous Version | Text Only | Print | Product List | Glossary On
Versions: 1 2 3 4 5 6 7 8 9 10 11 12 13 14 15 16 17 18 19 20 21 22 23 24 25 26 27 28 29 30 31 32 33 34 35 36 37 38 39 40 41 42 43 44 45 46 47 48 49 50
000
ASUS42 KMHX 161022
RWRMHX
WEATHER ROUNDUP FOR EASTERN NORTH CAROLINA
NATIONAL WEATHER SERVICE NEWPORT/MOREHEAD CITY NC
600 AM EDT WED APR 16 2014

NOTE: "FAIR" INDICATES FEW OR NO CLOUDS BELOW 12,000 FEET
WITH NO SIGNIFICANT WEATHER AND/OR OBSTRUCTIONS TO VISIBILITY

NCZ015>017-031-032-045>047-102-103-161100-
NORTH COAST

CITY           SKY/WX    TMP DP  RH WIND       PRES   REMARKS
EDENTON        CLEAR     36  28  75 N12G17    30.19R
ELIZABETH CITY PTCLDY    37  26  64 N20G26    30.18R
KITTY HAWK     CLOUDY    41  32  70 N15G29    30.13R
MANTEO         CLOUDY    42  32  70 N16G32    30.13R

$$

NCZ045>047-081-094-103-104-161100-
CENTRAL COAST

CITY           SKY/WX    TMP DP  RH WIND       PRES   REMARKS
FRISCO         CLOUDY    45  39  79 N13G33    30.09R
SWANQUARTER      N/A     39 N/A N/A N6G16     30.12R

$$

NCZ095-097-098-100-101-161100-
SOUTHERN COAST

CITY           SKY/WX    TMP DP  RH WIND       PRES   REMARKS
BEAUFORT       CLOUDY    41  33  73 N16G25    30.13R
CEDAR ISLAND     N/A     45 N/A N/A NW22G39   30.15R
JACKSONVILLE   CLEAR     39  32  76 N20G26    30.16R
NEWPORT          N/A    N/A N/A N/A N17G26      N/A
PINEY ISLAND   CLOUDY    44  34  67 N24G37    30.14R
WILMINGTON     PTCLDY    41  33  73 N14       30.17R


$$

NCZ011>013-027>030-043-044-078>080-089-090>093-098-161100-
COASTAL PLAIN

CITY           SKY/WX    TMP DP  RH WIND       PRES   REMARKS
AHOSKIE        CLEAR     34  25  71 N5        30.23R
CLINTON        CLOUDY    40  32  73 N13G18    30.20R
ELIZABETHTOWN  CLOUDY    40  31  69 N7        30.19R
GOLDSBORO      MOCLDY    37  32  81 N9G18     30.20R
GREENVILLE     CLEAR     36  30  80 N10       30.22R
HAVELOCK       PTCLDY    40  30  67 N23G30    30.16R
KENANSVILLE    MOCLDY    38  31  76 N20       30.21R
KINSTON        CLEAR     38  31  76 N13       30.21R
NEW BERN       CLEAR     40  30  67 N14G23    30.19R
RICHLANDS      CLEAR     37  28  70 N8G16     30.20R
ROANOKE RAPIDS NOT AVBL
ROCKY MOUNT      N/A    N/A N/A N/A MISG      30.22R
WASHINGTON     CLEAR     38  29  72 N16G25    30.21R
WHITEVILLE     CLOUDY    40  29  65 N8        30.18R

$$

AMZ130-135-150-152-154-156-158-170-250-252-270-ANZ085-086-088-633-658-670-161100-
MARINE OBSERVATIONS

STATION/POSITION TIME  TEMP    WIND        PRES    WAVE   SWELL
                       AIR SEA DIR/SP/G            HT/PER HT/PER
                 (UTC) (F)     (DEG/KT/KT) (MB)    (FT/S) (FT/S)
CHESAPEAKE LIGHT 1000   40     350/ 33/ 36 1021.4
BUOY 44014       1000   44 54  350/ 29/ 35 1018.4   12/ 7
DUCK             1000      48  360/ 32/ 38 1019.1
2E DUCK          1000      47                N/A     9/ 7   2/11
OREGON INLET     1000      64  340/ 17/ 30 1019.8
BUOY 44095       1000      61                N/A    12/ 8   2/11
HATTERAS CG      1000   47 62  360/ 28/ 38 1019.2
DIAMOND BUOY     NOT AVBL
CAPE LOOKOUT     1000   43     360/ 23/ 30 1019.9
BEAUFORT LAB     1000   42 63  360/ 20/ 25 1019.8
30 SE NEW RIVER  1000   46 63   10/ 27/ 35 1019.5    8/ 6
5 SE WRIGHTSVILL 1000   45 60   20/ 23/ 29 1020.6
FRYING PAN BUOY  1000   50 66   30/ 27/ 33 1018.7    9/ 7   2/13
BUOY 41001       NOT AVBL
BUOY 41002       NOT AVBL
BUOY 41004       NOT AVBL

$$



USA.gov is the U.S. government's official web portal to all federal, state and local government web resources and services.